TimeEST,TemperatureF,Dew PointF,Humidity,Sea Level PressureIn,VisibilityMPH,Wind Direction,Wind SpeedMPH,Gust SpeedMPH,PrecipitationIn,Events,Conditions,WindDirDegrees,DateUTC
12:53 AM,63.0,60.1,90,29.88,10.0,SSW,3.5,-,0.01,,Overcast,210,2012-12-17 05:53:00
1:53 AM,63.0,61.0,93,29.88,6.0,Calm,Calm,-,0.03,Rain,Light Rain,0,2012-12-17 06:53:00
2:34 AM,62.6,60.8,94,29.88,4.0,Calm,Calm,-,0.00,Rain,Light Rain,0,2012-12-17 07:34:00
2:40 AM,62.6,60.8,94,29.88,2.5,SW,3.5,-,0.01,Rain,Light Rain,230,2012-12-17 07:40:00
2:50 AM,62.6,60.8,94,29.90,2.0,NW,12.7,19.6,0.04,Rain,Rain,320,2012-12-17 07:50:00
2:51 AM,62.1,60.1,93,29.90,2.0,NW,13.8,23.0,0.04,Rain,Heavy Rain,310,2012-12-17 07:51:00
3:02 AM,59.0,55.4,88,29.90,5.0,NNW,12.7,21.9,0.01,Rain,Light Rain,330,2012-12-17 08:02:00
3:53 AM,57.9,55.0,90,29.88,10.0,North,4.6,-,0.01,,Overcast,10,2012-12-17 08:53:00
4:04 AM,57.2,55.4,94,29.89,10.0,Calm,Calm,-,N/A,,Overcast,0,2012-12-17 09:04:00
4:53 AM,57.0,55.0,93,29.83,10.0,SE,4.6,-,0.00,,Mostly Cloudy,130,2012-12-17 09:53:00
5:04 AM,57.2,55.4,94,29.83,10.0,Calm,Calm,-,N/A,,Mostly Cloudy,0,2012-12-17 10:04:00
5:13 AM,57.2,55.4,94,29.83,10.0,Calm,Calm,-,N/A,,Mostly Cloudy,0,2012-12-17 10:13:00
5:53 AM,57.0,55.0,93,29.83,10.0,Calm,Calm,-,N/A,,Overcast,0,2012-12-17 10:53:00
6:33 AM,57.2,55.4,94,29.81,10.0,ESE,3.5,-,N/A,,Overcast,110,2012-12-17 11:33:00
6:53 AM,57.0,55.0,93,29.85,10.0,NW,4.6,-,N/A,,Mostly Cloudy,310,2012-12-17 11:53:00
7:00 AM,57.2,55.4,94,29.86,10.0,WNW,3.5,-,N/A,,Mostly Cloudy,300,2012-12-17 12:00:00
7:37 AM,55.4,55.4,100,29.87,6.0,Calm,Calm,-,N/A,,Scattered Clouds,0,2012-12-17 12:37:00
7:53 AM,55.9,54.0,93,29.86,1.5,Calm,Calm,-,N/A,,Clear,0,2012-12-17 12:53:00
8:14 AM,57.2,55.4,94,29.88,2.0,SW,4.6,-,N/A,,Clear,230,2012-12-17 13:14:00
8:23 AM,57.2,55.4,94,29.88,6.0,SW,3.5,-,N/A,,Clear,220,2012-12-17 13:23:00
8:32 AM,57.2,55.4,94,29.88,7.0,Calm,Calm,-,N/A,,Scattered Clouds,0,2012-12-17 13:32:00
8:41 AM,57.2,55.4,94,29.88,7.0,WSW,3.5,-,N/A,,Mostly Cloudy,250,2012-12-17 13:41:00
8:53 AM,57.0,55.9,96,29.89,8.0,WSW,3.5,-,N/A,,Overcast,250,2012-12-17 13:53:00
9:53 AM,59.0,55.9,90,29.89,10.0,SW,4.6,-,N/A,,Mostly Cloudy,220,2012-12-17 14:53:00
10:01 AM,59.0,55.4,88,29.89,10.0,SW,3.5,-,N/A,,Scattered Clouds,230,2012-12-17 15:01:00
10:51 AM,60.8,57.2,88,29.87,10.0,Calm,Calm,-,N/A,,Overcast,0,2012-12-17 15:51:00
10:53 AM,60.1,57.0,90,29.87,10.0,Calm,Calm,-,N/A,,Overcast,0,2012-12-17 15:53:00
11:53 AM,60.1,57.0,90,29.86,4.0,NNW,4.6,-,0.03,Rain,Rain,340,2012-12-17 16:53:00
12:07 PM,60.8,57.2,88,29.85,10.0,Calm,Calm,-,0.00,Rain,Light Rain,0,2012-12-17 17:07:00
12:29 PM,60.8,57.2,88,29.87,2.0,SW,5.8,-,0.04,Rain,Rain,220,2012-12-17 17:29:00
12:49 PM,60.8,57.2,88,29.86,4.0,SW,4.6,-,0.08,Rain,Rain,220,2012-12-17 17:49:00
12:53 PM,60.1,57.9,93,29.86,4.0,SSW,4.6,-,0.08,Rain,Light Rain,210,2012-12-17 17:53:00
1:40 PM,60.8,57.2,88,29.86,10.0,WSW,11.5,-,0.05,Rain,Light Rain,240,2012-12-17 18:40:00
1:53 PM,60.1,57.9,93,29.83,3.0,SW,8.1,-,0.08,Rain,Rain,220,2012-12-17 18:53:00
2:38 PM,60.8,57.2,88,29.81,1.8,Calm,Calm,-,0.10,Rain,Heavy Rain,0,2012-12-17 19:38:00
2:45 PM,60.8,57.2,88,29.81,2.0,NW,4.6,-,0.11,Rain,Rain,320,2012-12-17 19:45:00
2:53 PM,60.1,57.0,90,29.79,6.0,North,4.6,-,0.11,Rain,Light Rain,360,2012-12-17 19:53:00
3:05 PM,60.8,57.2,88,29.80,1.8,Calm,Calm,-,0.06,Rain,Heavy Rain,0,2012-12-17 20:05:00
3:14 PM,60.8,57.2,88,29.77,3.0,North,5.8,-,0.07,Rain,Light Rain,10,2012-12-17 20:14:00
3:38 PM,60.8,57.2,88,29.82,1.8,WSW,8.1,-,0.15,Rain,Heavy Rain,250,2012-12-17 20:38:00
3:53 PM,60.1,57.9,93,29.83,2.5,West,5.8,-,0.21,Rain,Heavy Rain,270,2012-12-17 20:53:00
4:23 PM,60.8,57.2,88,29.79,7.0,ESE,6.9,-,0.10,Rain,Light Rain,120,2012-12-17 21:23:00
4:53 PM,59.0,57.9,96,29.79,10.0,SSE,5.8,-,0.11,Rain,Light Rain,160,2012-12-17 21:53:00
7:53 PM,59.0,55.9,90,29.75,10.0,Calm,Calm,-,N/A,,Clear,0,2012-12-18 00:53:00
8:53 PM,59.0,55.9,90,29.76,10.0,SW,4.6,-,N/A,,Overcast,220,2012-12-18 01:53:00
9:35 PM,59.0,55.4,88,29.77,10.0,SW,6.9,-,N/A,,Overcast,230,2012-12-18 02:35:00
9:53 PM,60.1,55.9,86,29.76,10.0,SW,8.1,-,N/A,,Overcast,220,2012-12-18 02:53:00
10:50 PM,60.8,57.2,88,29.77,10.0,SW,8.1,-,N/A,,Overcast,230,2012-12-18 03:50:00
10:53 PM,60.1,57.0,90,29.76,10.0,SW,8.1,-,N/A,,Overcast,230,2012-12-18 03:53:00
11:53 PM,60.1,57.0,90,29.75,10.0,SW,8.1,-,N/A,,Overcast,220,2012-12-18 04:53:00